Regional Weather Roundup
Issued by NWS

Home | Current Version | Previous Version | Text Only | Print | Product List | Glossary Off
Versions: 1 2 3 4 5 6 7 8 9 10 11 12 13 14 15 16 17 18 19 20 21 22 23 24 25 26 27 28 29 30 31 32 33 34 35 36 37 38 39 40 41 42 43 44 45 46 47 48 49 50

072
ASUS43 KBIS 080110
RWRND

NORTH DAKOTA REGIONAL WEATHER ROUNDUP
NATIONAL WEATHER SERVICE BISMARCK ND
700 PM CST WED DEC 07 2016

NOTE: "FAIR" INDICATES FEW OR NO CLOUDS BELOW 12,000 FEET WITH NO
SIGNIFICANT WEATHER AND/OR OBSTRUCTIONS TO VISIBILITY.


NDZ001>003-009>011-017-080200-
NORTHWEST NORTH DAKOTA

CITY           SKY/WX    TMP DP  RH WIND       PRES   REMARKS
WILLISTON      CLOUDY     3  -6  66 NW17      30.53R WCI -17
MINOT          LGT SNOW   5   0  79 W30       30.36R WCI -19
MINOT AFB      DRIZZLE    3   0  85 NW30G37   30.35R WCI -21
$$

NDZ018>021-031>035-040>046-080200-
SOUTHWEST NORTH DAKOTA

CITY           SKY/WX    TMP DP  RH WIND       PRES   REMARKS
BISMARCK       CLOUDY     4  -2  76 NW20G31   30.41R WCI -17
DICKINSON      CLEAR     -2  -8  76 W25G37    30.39R WCI -27
GARRISON         N/A      3  -1  83 NW26G39   30.37R WCI -21
HETTINGER ARPT CLEAR      0  -7  72 NW22      30.42R WCI -23
$$

NDZ004>008-012>016-024-026-027-054-080200-
NORTHEAST NORTH DAKOTA

CITY           SKY/WX    TMP DP  RH WIND       PRES   REMARKS
GRAND FORKS    LGT SNOW  20  16  84 NW22      30.12R BLWGSNOWWCI   3
GRND FRKS AFB  LGT SNOW  18  14  86 NW20      30.14R FOG     WCI   1
DEVILS LAKE    LGT SNOW  12   9  87 NW22      30.21R FOG     WCI  -7
$$

NDZ022-023-025-028>030-036>039-047>053-080200-
SOUTHEAST NORTH DAKOTA

CITY           SKY/WX    TMP DP  RH WIND       PRES   REMARKS
FARGO          LGT SNOW  16  11  80 NW23      30.14R WCI  -2
JAMESTOWN      LGT SNOW   8   4  83 NW33G45   30.23R VSB 3/4 WCI -16
$$





USA.gov is the U.S. government's official web portal to all federal, state and local government web resources and services.